TimeCST,TemperatureF,Dew PointF,Humidity,Sea Level PressureIn,VisibilityMPH,Wind Direction,Wind SpeedMPH,Gust SpeedMPH,PrecipitationIn,Events,Conditions,WindDirDegrees,DateUTC
12:15 AM,57.4,49.3,74,29.85,10.0,South,8.1,-,N/A,,Clear,180,2013-11-16 06:15:00
12:35 AM,57.2,49.6,76,29.84,10.0,South,6.9,-,N/A,,Clear,170,2013-11-16 06:35:00
12:55 AM,57.6,50.0,76,29.84,10.0,South,6.9,-,N/A,,Clear,180,2013-11-16 06:55:00
1:15 AM,57.2,50.0,77,29.84,10.0,South,5.8,-,N/A,,Clear,190,2013-11-16 07:15:00
1:35 AM,57.2,50.0,77,29.84,10.0,South,3.5,-,N/A,,Clear,190,2013-11-16 07:35:00
1:55 AM,55.4,49.5,80,29.84,10.0,SSW,4.6,-,N/A,,Clear,210,2013-11-16 07:55:00
2:15 AM,55.6,50.0,81,29.83,10.0,South,6.9,-,N/A,,Clear,190,2013-11-16 08:15:00
2:35 AM,56.3,50.2,80,29.83,10.0,SSW,6.9,-,N/A,,Clear,200,2013-11-16 08:35:00
2:55 AM,55.9,50.0,80,29.81,10.0,SSE,5.8,-,N/A,,Clear,160,2013-11-16 08:55:00
3:15 AM,54.5,50.0,85,29.83,10.0,Calm,Calm,-,N/A,,Clear,0,2013-11-16 09:15:00
3:35 AM,54.5,49.6,84,29.84,10.0,WSW,3.5,-,N/A,,Clear,250,2013-11-16 09:35:00
3:55 AM,53.6,50.0,88,29.83,10.0,Calm,Calm,-,N/A,,Clear,0,2013-11-16 09:55:00
4:15 AM,52.3,49.3,89,29.82,10.0,Calm,Calm,-,N/A,,Clear,0,2013-11-16 10:15:00
4:35 AM,54.3,50.7,88,29.82,10.0,SSW,9.2,-,N/A,,Clear,200,2013-11-16 10:35:00
4:55 AM,57.2,50.9,79,29.81,10.0,SSW,11.5,-,N/A,,Scattered Clouds,200,2013-11-16 10:55:00
5:15 AM,57.9,51.1,78,29.83,10.0,SSW,5.8,-,N/A,,Mostly Cloudy,210,2013-11-16 11:15:00
5:35 AM,57.4,50.9,79,29.82,10.0,SSW,4.6,-,N/A,,Overcast,200,2013-11-16 11:35:00
5:55 AM,57.4,50.9,79,29.83,10.0,Calm,Calm,-,N/A,,Overcast,0,2013-11-16 11:55:00
6:15 AM,55.9,50.4,82,29.83,10.0,South,4.6,-,N/A,,Overcast,180,2013-11-16 12:15:00
6:35 AM,55.4,50.2,83,29.84,10.0,SW,4.6,-,N/A,,Scattered Clouds,220,2013-11-16 12:35:00
6:55 AM,54.9,50.2,84,29.84,10.0,South,4.6,-,N/A,,Clear,170,2013-11-16 12:55:00
7:15 AM,54.5,49.8,84,29.84,10.0,South,6.9,-,N/A,,Clear,180,2013-11-16 13:15:00
7:35 AM,55.2,50.9,85,29.85,10.0,SSW,6.9,-,N/A,,Clear,200,2013-11-16 13:35:00
7:55 AM,57.2,51.4,81,29.85,10.0,SW,5.8,-,N/A,,Clear,220,2013-11-16 13:55:00
8:15 AM,58.6,52.0,79,29.86,10.0,South,8.1,-,N/A,,Clear,190,2013-11-16 14:15:00
8:35 AM,60.8,53.1,76,29.86,10.0,South,8.1,-,N/A,,Clear,180,2013-11-16 14:35:00
8:55 AM,62.6,53.8,73,29.86,10.0,SSW,9.2,-,N/A,,Clear,200,2013-11-16 14:55:00
9:15 AM,62.8,54.1,73,29.87,10.0,SSW,6.9,-,N/A,,Clear,200,2013-11-16 15:15:00
9:35 AM,65.7,55.0,69,29.87,10.0,SSW,12.7,18.4,N/A,,Clear,200,2013-11-16 15:35:00
9:55 AM,66.7,55.2,66,29.86,10.0,SSW,11.5,20.7,N/A,,Scattered Clouds,200,2013-11-16 15:55:00
10:15 AM,69.1,55.2,61,29.86,10.0,South,16.1,24.2,N/A,,Mostly Cloudy,190,2013-11-16 16:15:00
10:35 AM,69.8,55.0,59,29.86,10.0,South,18.4,-,N/A,,Scattered Clouds,190,2013-11-16 16:35:00
10:55 AM,70.2,54.9,58,29.85,10.0,SSW,13.8,24.2,N/A,,Scattered Clouds,200,2013-11-16 16:55:00
11:15 AM,74.1,55.2,52,29.84,10.0,SSW,13.8,20.7,N/A,,Mostly Cloudy,200,2013-11-16 17:15:00
11:35 AM,73.6,54.5,51,29.83,10.0,SSW,13.8,20.7,N/A,,Scattered Clouds,200,2013-11-16 17:35:00
11:55 AM,75.0,55.2,50,29.81,10.0,South,16.1,21.9,N/A,,Mostly Cloudy,190,2013-11-16 17:55:00
12:15 PM,77.9,54.0,43,29.79,10.0,SSW,19.6,24.2,N/A,,Mostly Cloudy,200,2013-11-16 18:15:00
12:35 PM,78.8,54.1,42,29.78,10.0,SSW,16.1,21.9,N/A,,Scattered Clouds,200,2013-11-16 18:35:00
12:55 PM,80.6,53.2,39,29.76,10.0,SSW,18.4,25.3,N/A,,Clear,210,2013-11-16 18:55:00
1:15 PM,81.1,52.0,36,29.74,10.0,SSW,16.1,27.6,N/A,,Clear,200,2013-11-16 19:15:00
1:35 PM,81.7,51.1,34,29.73,10.0,SSW,19.6,24.2,N/A,,Clear,200,2013-11-16 19:35:00
1:55 PM,82.8,50.9,33,29.72,10.0,SSW,15.0,24.2,N/A,,Clear,210,2013-11-16 19:55:00
2:15 PM,83.7,49.8,31,29.72,10.0,SSW,19.6,27.6,N/A,,Clear,200,2013-11-16 20:15:00
2:35 PM,83.1,49.8,31,29.71,10.0,SSW,17.3,29.9,N/A,,Clear,210,2013-11-16 20:35:00
2:55 PM,82.6,50.2,32,29.70,10.0,SSW,17.3,27.6,N/A,,Clear,200,2013-11-16 20:55:00
3:15 PM,83.5,50.5,32,29.70,10.0,SSW,16.1,24.2,N/A,,Clear,210,2013-11-16 21:15:00
3:35 PM,82.9,50.4,32,29.70,10.0,SSW,17.3,26.5,N/A,,Clear,210,2013-11-16 21:35:00
3:55 PM,83.1,50.7,32,29.70,10.0,SSW,15.0,24.2,N/A,,Clear,200,2013-11-16 21:55:00
4:15 PM,81.7,51.8,35,29.70,10.0,SSW,21.9,26.5,N/A,,Clear,200,2013-11-16 22:15:00
4:35 PM,80.6,52.7,38,29.69,10.0,South,17.3,26.5,N/A,,Clear,190,2013-11-16 22:35:00
4:55 PM,78.6,53.6,42,29.69,10.0,South,18.4,24.2,N/A,,Clear,190,2013-11-16 22:55:00
5:15 PM,77.4,54.0,44,29.70,10.0,South,15.0,24.2,N/A,,Clear,190,2013-11-16 23:15:00
5:35 PM,76.1,54.1,46,29.70,10.0,South,15.0,23.0,N/A,,Clear,190,2013-11-16 23:35:00
5:55 PM,74.3,55.4,52,29.70,10.0,South,12.7,-,N/A,,Clear,180,2013-11-16 23:55:00
6:15 PM,72.9,56.1,56,29.71,10.0,South,16.1,20.7,N/A,,Clear,180,2013-11-17 00:15:00
6:35 PM,72.0,56.3,58,29.72,10.0,South,13.8,20.7,N/A,,Clear,190,2013-11-17 00:35:00
6:55 PM,70.9,56.5,60,29.72,10.0,South,12.7,-,N/A,,Clear,180,2013-11-17 00:55:00
7:15 PM,69.8,57.2,64,29.73,10.0,South,11.5,-,N/A,,Clear,190,2013-11-17 01:15:00
7:35 PM,69.4,57.6,66,29.74,10.0,SSW,12.7,17.3,N/A,,Clear,200,2013-11-17 01:35:00
7:55 PM,69.1,58.1,68,29.74,10.0,SSW,11.5,-,N/A,,Clear,200,2013-11-17 01:55:00
8:15 PM,68.9,58.1,68,29.74,10.0,South,12.7,-,N/A,,Clear,190,2013-11-17 02:15:00
8:35 PM,68.9,58.1,68,29.74,10.0,South,12.7,-,N/A,,Clear,190,2013-11-17 02:35:00
8:55 PM,68.5,58.3,70,29.75,10.0,SSW,12.7,-,N/A,,Clear,200,2013-11-17 02:55:00
9:15 PM,68.2,58.5,71,29.75,10.0,SSW,12.7,-,N/A,,Clear,200,2013-11-17 03:15:00
9:35 PM,68.0,58.6,72,29.75,10.0,SSW,11.5,17.3,N/A,,Clear,200,2013-11-17 03:35:00
9:55 PM,67.5,59.0,74,29.76,10.0,SSW,11.5,-,N/A,,Clear,200,2013-11-17 03:55:00
10:15 PM,67.3,59.0,75,29.75,10.0,SSW,11.5,17.3,N/A,,Clear,200,2013-11-17 04:15:00
10:35 PM,67.1,59.2,76,29.76,10.0,SSW,10.4,-,N/A,,Clear,200,2013-11-17 04:35:00
10:55 PM,66.7,59.4,77,29.76,10.0,SSW,8.1,-,N/A,,Clear,210,2013-11-17 04:55:00
11:15 PM,66.4,59.4,78,29.77,10.0,SSW,8.1,-,N/A,,Clear,210,2013-11-17 05:15:00
11:35 PM,66.4,59.7,79,29.76,10.0,SSW,6.9,-,N/A,,Clear,210,2013-11-17 05:35:00
11:55 PM,66.2,59.5,79,29.77,10.0,SSW,6.9,-,N/A,,Clear,210,2013-11-17 05:55:00